Flag for Guinea Weather past 2 weeks in Boké, Guinea

Now
77 °F

Partly sunny.


Feels Like: 78 °F
Forecast: 72 / 81 °F
Wind: 7 mph from South

Location: Conakry / Gbessia

Current Time: Aug 23, 2014 at 7:57:39 AM

Latest Report: Aug 23, 2014 at 7:00 AM


Visibility: N/A

Pressure: 29.95 "Hg

Humidity: 94%

Dew point: 75 °F

Location of BokéLocation

Historic Weather in Boké — Graph

°F

Boké temperature yesterday

Maximum temperature yesterday: 81 °F (at 1:00 PM)
Minimum temperature yesterday: 73 °F (at 1:00 AM)
Average temperature yesterday: 76 °F

Past Weeks' High & Low Weather Summary

 TemperatureHumidityPressure
High86 °F (Aug 20, 1:00 PM)100% (Aug 9, 1:00 AM)30.01 "Hg (Aug 9, 1:00 AM)
Low73 °F (Aug 10, 5:00 AM)70% (Aug 16, 1:00 PM)29.83 "Hg (Aug 8, 5:00 PM)
Average77 °F92%29.93 "Hg
* Reported Aug 8 9:00 AM — Aug 23 6:00 AM, Boké, Weather by CustomWeather, © 2014

Note: Actual official high and low records may vary slightly from our data, if they occured in-between our weather recording intervals... More about our weather records

Advertising

Boké weather history for previous 24 hours

 ConditionsComfort  
Time TempWeatherWind HumidityBarometerVisibility
6:00 AM
Aug 23
75 °FLight rain. Partly cloudy.No wind94%29.92 "Hg5 mi
5:00 AM75 °FLight rain. Partly cloudy.7 mph100%29.92 "Hg5 mi
4:00 AM75 °FLight rain. Partly cloudy.5 mph100%29.92 "Hg5 mi
3:00 AM75 °FLight rain. Partly cloudy.7 mph100%29.92 "Hg5 mi
2:00 AM75 °FLight rain. Partly cloudy.2 mph100%29.95 "Hg5 mi
1:00 AM77 °FLight rain. Partly cloudy.5 mph89%29.98 "Hg5 mi
12:00 AM77 °FPartly cloudy.5 mph89%29.98 "HgN/A
11:00 PM
Aug 22
77 °FLight rain. Partly cloudy.2 mph89%29.98 "Hg5 mi
10:00 PM77 °FPassing clouds.5 mph89%29.98 "HgN/A
7:00 PM79 °FPartly sunny.9 mph89%29.95 "HgN/A
6:00 PM79 °FPartly sunny.12 mph89%29.92 "HgN/A
5:00 PM77 °FLight rain. Partly sunny.12 mph94%29.92 "Hg5 mi
4:00 PM77 °FLight rain. Partly sunny.16 mph94%29.92 "Hg5 mi
3:00 PM79 °FPartly sunny.14 mph89%29.95 "HgN/A
2:00 PM79 °FPartly sunny.14 mph84%29.95 "HgN/A
1:00 PM81 °FPartly sunny.12 mph84%29.98 "HgN/A
12:00 PM79 °FPartly sunny.7 mph89%29.98 "Hg5 mi
11:00 AM77 °FLight rain. Partly sunny.9 mph94%29.98 "Hg5 mi
10:00 AM77 °FLight rain. Partly sunny.7 mph89%29.98 "Hg5 mi
9:00 AM77 °FLight rain. Partly sunny.7 mph89%29.98 "Hg5 mi
8:00 AM73 °FLight rain. Partly sunny.5 mph100%29.95 "Hg5 mi
7:00 AM73 °FLight rain. Mostly cloudy.No wind100%29.92 "Hg3 mi
Weather by CustomWeather, © 2014

See weather overviewHow to use our weather pages